ROG1RR LERS-LESO

Flight info

Callsign ROG1RR
Flight time 1h 46m
Altitude 14000
Route POSSY M601 RONKO P152 BAGAS L176 SSN
Aircraft DA42/L-SBDGRY/S

Departure

Time 2026-05-05 10:08
Airport Reus Airport (LERS)

Arrival

Time 2026-05-05 11:54
Airport San Sebastián Airport (LESO)
Time Latitude Longitude Altitude Speed Heading
2026-05-05 09:19 41.14341 1.15059 235 ft 0 kts 68°
2026-05-05 09:53 41.14342 1.15060 235 ft 0 kts 67°
2026-05-05 09:53 41.14348 1.15033 235 ft 10 kts 316°
2026-05-05 09:53 41.14426 1.15051 235 ft 17 kts 73°
2026-05-05 09:54 41.14471 1.15205 235 ft 19 kts 69°
2026-05-05 09:54 41.14504 1.15318 235 ft 11 kts 69°
2026-05-05 09:54 41.14534 1.15426 235 ft 15 kts 84°
2026-05-05 09:54 41.14572 1.15537 235 ft 14 kts 69°
2026-05-05 09:55 41.14614 1.15683 235 ft 19 kts 69°
2026-05-05 09:55 41.14664 1.15853 235 ft 20 kts 69°
2026-05-05 09:55 41.14715 1.16033 235 ft 21 kts 69°
2026-05-05 09:55 41.14770 1.16216 235 ft 18 kts 66°
2026-05-05 09:56 41.14811 1.16357 235 ft 17 kts 69°
2026-05-05 09:56 41.14858 1.16517 235 ft 20 kts 69°
2026-05-05 09:56 41.14911 1.16697 235 ft 23 kts 69°
2026-05-05 09:56 41.14973 1.16909 235 ft 25 kts 69°
2026-05-05 09:57 41.15034 1.17119 235 ft 24 kts 69°
2026-05-05 09:57 41.15095 1.17325 235 ft 24 kts 70°
2026-05-05 09:57 41.15154 1.17529 235 ft 24 kts 70°
2026-05-05 09:57 41.15212 1.17727 235 ft 22 kts 69°
2026-05-05 09:58 41.15267 1.17918 235 ft 22 kts 65°
2026-05-05 09:58 41.15324 1.18112 235 ft 23 kts 69°
2026-05-05 09:58 41.15366 1.18261 235 ft 14 kts 76°
2026-05-05 09:58 41.15359 1.18303 235 ft 0 kts 163°
2026-05-05 10:03 41.15334 1.18327 235 ft 12 kts 156°
2026-05-05 10:04 41.15249 1.18309 235 ft 14 kts 206°
2026-05-05 10:04 41.15188 1.18252 235 ft 0 kts 246°
2026-05-05 10:07 41.15148 1.18117 235 ft 45 kts 249°
2026-05-05 10:07 41.14975 1.17527 235 ft 87 kts 249°
2026-05-05 10:07 41.14750 1.16719 374 ft 94 kts 248°
2026-05-05 10:07 41.14532 1.15916 703 ft 92 kts 245°
2026-05-05 10:08 41.14177 1.15205 987 ft 94 kts 233°
2026-05-05 10:08 41.13796 1.14520 1238 ft 91 kts 237°
2026-05-05 10:08 41.13454 1.13820 1497 ft 90 kts 238°
2026-05-05 10:08 41.13111 1.13117 1743 ft 91 kts 240°
2026-05-05 10:09 41.12780 1.12379 2007 ft 93 kts 244°
2026-05-05 10:09 41.12485 1.11630 2283 ft 91 kts 244°
2026-05-05 10:09 41.12183 1.10902 2527 ft 90 kts 245°
2026-05-05 10:09 41.11883 1.10182 2795 ft 88 kts 242°
2026-05-05 10:10 41.11588 1.09464 3030 ft 89 kts 248°
2026-05-05 10:10 41.11334 1.08716 3283 ft 89 kts 248°
2026-05-05 10:10 41.11067 1.07981 3541 ft 88 kts 246°
2026-05-05 10:10 41.10788 1.07258 3810 ft 89 kts 245°
2026-05-05 10:11 41.10470 1.06548 4074 ft 90 kts 241°
2026-05-05 10:11 41.10143 1.05850 4353 ft 88 kts 240°
2026-05-05 10:11 41.09839 1.05143 4630 ft 89 kts 242°
2026-05-05 10:11 41.09564 1.04414 4882 ft 89 kts 246°
2026-05-05 10:12 41.09296 1.03671 5148 ft 89 kts 245°
2026-05-05 10:12 41.09030 1.02918 5374 ft 91 kts 245°
2026-05-05 10:12 41.08749 1.02163 5616 ft 91 kts 244°
2026-05-05 10:12 41.08469 1.01405 5854 ft 92 kts 244°
2026-05-05 10:13 41.08184 1.00650 6092 ft 92 kts 241°
2026-05-05 10:13 41.07875 0.99904 6324 ft 92 kts 243°
2026-05-05 10:13 41.07585 0.99151 6554 ft 91 kts 242°
2026-05-05 10:13 41.07298 0.98405 6778 ft 91 kts 244°
2026-05-05 10:14 41.07038 0.97648 7012 ft 90 kts 245°
2026-05-05 10:14 41.06769 0.96903 7242 ft 89 kts 241°
2026-05-05 10:14 41.06504 0.96178 7461 ft 89 kts 242°
2026-05-05 10:14 41.06226 0.95452 7698 ft 88 kts 239°
2026-05-05 10:15 41.05921 0.94757 7945 ft 87 kts 236°
2026-05-05 10:15 41.05605 0.94078 8180 ft 86 kts 234°
2026-05-05 10:15 41.05278 0.93419 8410 ft 87 kts 242°
2026-05-05 10:15 41.05031 0.92702 8649 ft 85 kts 239°
2026-05-05 10:16 41.04769 0.92000 8884 ft 85 kts 240°
2026-05-05 10:16 41.04673 0.91229 9124 ft 94 kts 275°
2026-05-05 10:16 41.05132 0.90519 9340 ft 114 kts 320°
2026-05-05 10:16 41.05949 0.90263 9549 ft 124 kts 342°
2026-05-05 10:17 41.06803 0.90095 9751 ft 125 kts 339°
2026-05-05 10:17 41.07676 0.89961 9961 ft 125 kts 342°
2026-05-05 10:17 41.08523 0.89814 10199 ft 120 kts 335°
2026-05-05 10:17 41.09351 0.89585 10383 ft 121 kts 336°
2026-05-05 10:18 41.10176 0.89365 10619 ft 120 kts 335°
2026-05-05 10:18 41.10996 0.89127 10836 ft 120 kts 334°
2026-05-05 10:18 41.11791 0.88841 11103 ft 117 kts 329°
2026-05-05 10:18 41.12587 0.88544 11344 ft 119 kts 332°
2026-05-05 10:19 41.13389 0.88224 11545 ft 120 kts 329°
2026-05-05 10:19 41.14178 0.87875 11781 ft 120 kts 327°
2026-05-05 10:19 41.14963 0.87509 12020 ft 120 kts 327°
2026-05-05 10:19 41.15749 0.87134 12260 ft 120 kts 327°
2026-05-05 10:20 41.16533 0.86756 12495 ft 120 kts 326°
2026-05-05 10:20 41.17316 0.86372 12710 ft 120 kts 326°
2026-05-05 10:20 41.18098 0.85986 12909 ft 120 kts 326°
2026-05-05 10:20 41.18885 0.85607 13105 ft 120 kts 327°
2026-05-05 10:21 41.19660 0.85224 13311 ft 121 kts 326°
2026-05-05 10:21 41.20446 0.84835 13544 ft 121 kts 326°
2026-05-05 10:21 41.21231 0.84440 13786 ft 120 kts 326°
2026-05-05 10:21 41.22016 0.84044 13914 ft 122 kts 326°
2026-05-05 10:22 41.22843 0.83608 13959 ft 136 kts 326°
2026-05-05 10:22 41.23759 0.83102 13964 ft 149 kts 326°
2026-05-05 10:22 41.24753 0.82546 13957 ft 159 kts 327°
2026-05-05 10:22 41.25784 0.81979 13959 ft 161 kts 328°
2026-05-05 10:23 41.26822 0.81419 13963 ft 162 kts 328°
2026-05-05 10:23 41.27870 0.80856 13958 ft 162 kts 328°
2026-05-05 10:23 41.28916 0.80298 13963 ft 162 kts 328°
2026-05-05 10:23 41.29964 0.79741 13964 ft 162 kts 328°
2026-05-05 10:24 41.31010 0.79185 13959 ft 162 kts 328°
2026-05-05 10:24 41.32052 0.78630 13965 ft 161 kts 328°
2026-05-05 10:24 41.33094 0.78078 13968 ft 161 kts 328°
2026-05-05 10:24 41.34140 0.77525 13967 ft 161 kts 328°
2026-05-05 10:25 41.35184 0.76975 13965 ft 161 kts 328°
2026-05-05 10:25 41.36229 0.76426 13965 ft 162 kts 328°
2026-05-05 10:25 41.37271 0.75882 13963 ft 160 kts 329°
2026-05-05 10:25 41.38306 0.75342 13963 ft 160 kts 328°
2026-05-05 10:26 41.39342 0.74800 13963 ft 161 kts 328°
2026-05-05 10:26 41.40383 0.74256 13959 ft 160 kts 328°
2026-05-05 10:26 41.41064 0.73901 13961 ft 158 kts 328°
2026-05-05 10:26 41.42081 0.73370 13961 ft 156 kts 328°
2026-05-05 10:27 41.43425 0.72664 13962 ft 156 kts 328°
2026-05-05 10:27 41.44441 0.72133 13964 ft 157 kts 328°
2026-05-05 10:27 41.45465 0.71596 13968 ft 159 kts 328°
2026-05-05 10:27 41.46503 0.71050 13970 ft 161 kts 328°
2026-05-05 10:28 41.47210 0.70676 13970 ft 162 kts 328°
2026-05-05 10:28 41.48248 0.70126 13970 ft 163 kts 329°
2026-05-05 10:28 41.49305 0.69567 13968 ft 164 kts 329°
2026-05-05 10:28 41.50366 0.69007 13967 ft 164 kts 329°
2026-05-05 10:29 41.51427 0.68447 13971 ft 164 kts 329°
2026-05-05 10:29 41.52487 0.67890 13970 ft 164 kts 329°
2026-05-05 10:29 41.53549 0.67331 13973 ft 164 kts 329°
2026-05-05 10:29 41.54612 0.66772 13970 ft 164 kts 329°
2026-05-05 10:30 41.55674 0.66215 13971 ft 164 kts 329°
2026-05-05 10:30 41.56738 0.65658 13974 ft 164 kts 329°
2026-05-05 10:30 41.57803 0.65100 13974 ft 165 kts 329°
2026-05-05 10:30 41.58868 0.64544 13973 ft 164 kts 329°
2026-05-05 10:31 41.59935 0.63987 13969 ft 165 kts 329°
2026-05-05 10:31 41.61001 0.63431 13970 ft 165 kts 329°
2026-05-05 10:31 41.62068 0.62876 13972 ft 164 kts 330°
2026-05-05 10:31 41.63133 0.62323 13974 ft 164 kts 329°
2026-05-05 10:32 41.64198 0.61770 13974 ft 164 kts 329°
2026-05-05 10:32 41.65260 0.61220 13976 ft 164 kts 330°
2026-05-05 10:32 41.66325 0.60669 13976 ft 164 kts 330°
2026-05-05 10:32 41.67389 0.60117 13975 ft 164 kts 330°
2026-05-05 10:33 41.68452 0.59566 13979 ft 164 kts 330°
2026-05-05 10:33 41.69476 0.58941 13966 ft 157 kts 314°
2026-05-05 10:33 41.70262 0.57971 13971 ft 152 kts 305°
2026-05-05 10:33 41.71010 0.56970 13974 ft 153 kts 307°
2026-05-05 10:34 41.71783 0.56014 13974 ft 154 kts 309°
2026-05-05 10:34 41.72587 0.55064 13975 ft 155 kts 309°
2026-05-05 10:34 41.73399 0.54118 13974 ft 155 kts 310°
2026-05-05 10:34 41.74211 0.53172 13977 ft 155 kts 310°
2026-05-05 10:35 41.75026 0.52222 13975 ft 155 kts 310°
2026-05-05 10:35 41.75843 0.51271 13975 ft 156 kts 310°
2026-05-05 10:35 41.76659 0.50319 13977 ft 156 kts 310°
2026-05-05 10:35 41.77476 0.49366 13978 ft 156 kts 310°
2026-05-05 10:36 41.78296 0.48408 13974 ft 157 kts 310°
2026-05-05 10:36 41.79119 0.47448 13973 ft 157 kts 310°
2026-05-05 10:36 41.79939 0.46491 13975 ft 156 kts 310°
2026-05-05 10:36 41.80760 0.45532 13976 ft 156 kts 310°
2026-05-05 10:37 41.81578 0.44574 13974 ft 156 kts 310°
2026-05-05 10:37 41.82397 0.43617 13973 ft 156 kts 310°
2026-05-05 10:37 41.83217 0.42658 13974 ft 156 kts 310°
2026-05-05 10:37 41.84036 0.41700 13974 ft 156 kts 310°
2026-05-05 10:38 41.84854 0.40741 13976 ft 156 kts 310°
2026-05-05 10:38 41.85674 0.39781 13975 ft 156 kts 310°
2026-05-05 10:38 41.86496 0.38819 13976 ft 157 kts 310°
2026-05-05 10:38 41.87317 0.37857 13974 ft 157 kts 310°
2026-05-05 10:39 41.88142 0.36890 13973 ft 157 kts 310°
2026-05-05 10:39 41.88964 0.35926 13970 ft 157 kts 310°
2026-05-05 10:39 41.89784 0.34964 13972 ft 157 kts 310°
2026-05-05 10:39 41.90603 0.34004 13974 ft 156 kts 310°
2026-05-05 10:40 41.91421 0.33042 13971 ft 157 kts 310°
2026-05-05 10:40 41.92240 0.32081 13969 ft 156 kts 310°
2026-05-05 10:40 41.93056 0.31123 13970 ft 156 kts 310°
2026-05-05 10:40 41.93871 0.30163 13972 ft 156 kts 310°
2026-05-05 10:41 41.94677 0.29217 13970 ft 156 kts 310°
2026-05-05 10:41 41.95493 0.28257 13972 ft 156 kts 310°
2026-05-05 10:41 41.96311 0.27295 13971 ft 156 kts 310°
2026-05-05 10:41 41.97129 0.26334 13970 ft 156 kts 311°
2026-05-05 10:42 41.98769 0.24403 13973 ft 157 kts 311°
2026-05-05 10:42 41.99590 0.23435 13969 ft 157 kts 311°
2026-05-05 10:42 42.00409 0.22470 13967 ft 157 kts 311°
2026-05-05 10:43 42.01227 0.21506 13974 ft 156 kts 311°
2026-05-05 10:43 42.02045 0.20541 13969 ft 156 kts 311°
2026-05-05 10:43 42.02863 0.19576 13971 ft 156 kts 311°
2026-05-05 10:43 42.03681 0.18610 13971 ft 156 kts 311°
2026-05-05 10:44 42.04497 0.17647 13971 ft 156 kts 311°
2026-05-05 10:44 42.05313 0.16683 13970 ft 156 kts 311°
2026-05-05 10:44 42.06082 0.15677 13967 ft 152 kts 300°
2026-05-05 10:44 42.06597 0.14473 13971 ft 148 kts 290°
2026-05-05 10:45 42.07059 0.13238 13975 ft 148 kts 289°
2026-05-05 10:45 42.07521 0.11997 13970 ft 148 kts 290°
2026-05-05 10:45 42.07982 0.10758 13969 ft 148 kts 290°
2026-05-05 10:45 42.08445 0.09517 13972 ft 149 kts 290°
2026-05-05 10:46 42.08908 0.08275 13972 ft 148 kts 290°
2026-05-05 10:46 42.09371 0.07033 13969 ft 148 kts 290°
2026-05-05 10:46 42.09832 0.05793 13971 ft 148 kts 290°
2026-05-05 10:46 42.10294 0.04554 13973 ft 148 kts 290°
2026-05-05 10:47 42.10754 0.03317 13970 ft 147 kts 290°
2026-05-05 10:47 42.11211 0.02085 13968 ft 148 kts 290°
2026-05-05 10:47 42.11674 0.00842 13967 ft 148 kts 290°
2026-05-05 10:47 42.12135 -0.00397 13970 ft 148 kts 290°
2026-05-05 10:48 42.12596 -0.01637 13968 ft 148 kts 290°
2026-05-05 10:48 42.13055 -0.02873 13967 ft 147 kts 290°
2026-05-05 10:48 42.13507 -0.04092 13971 ft 148 kts 290°
2026-05-05 10:48 42.13972 -0.05346 13973 ft 148 kts 290°
2026-05-05 10:49 42.14426 -0.06571 13971 ft 148 kts 290°
2026-05-05 10:49 42.14886 -0.07812 13973 ft 148 kts 290°
2026-05-05 10:49 42.15347 -0.09056 13972 ft 149 kts 290°
2026-05-05 10:49 42.15809 -0.10305 13976 ft 149 kts 290°
2026-05-05 10:50 42.16272 -0.11553 13978 ft 149 kts 290°
2026-05-05 10:50 42.16736 -0.12807 13974 ft 150 kts 290°
2026-05-05 10:50 42.17199 -0.14059 13972 ft 148 kts 290°
2026-05-05 10:50 42.17659 -0.15303 13972 ft 149 kts 290°
2026-05-05 10:51 42.18119 -0.16550 13977 ft 148 kts 290°
2026-05-05 10:51 42.18580 -0.17798 13975 ft 149 kts 290°
2026-05-05 10:51 42.19042 -0.19048 13967 ft 149 kts 290°
2026-05-05 10:51 42.19505 -0.20303 13971 ft 149 kts 290°
2026-05-05 10:52 42.19968 -0.21558 13973 ft 149 kts 290°
2026-05-05 10:52 42.20431 -0.22813 13974 ft 150 kts 290°
2026-05-05 10:52 42.20895 -0.24071 13971 ft 149 kts 290°
2026-05-05 10:52 42.21357 -0.25325 13976 ft 149 kts 290°
2026-05-05 10:53 42.21819 -0.26581 13972 ft 150 kts 290°
2026-05-05 10:53 42.22282 -0.27838 13973 ft 150 kts 290°
2026-05-05 10:53 42.22744 -0.29094 13972 ft 149 kts 290°
2026-05-05 10:53 42.23203 -0.30343 13968 ft 149 kts 290°
2026-05-05 10:54 42.23662 -0.31592 13976 ft 149 kts 289°
2026-05-05 10:54 42.24125 -0.32852 13973 ft 150 kts 289°
2026-05-05 10:54 42.24589 -0.34115 13974 ft 151 kts 290°
2026-05-05 10:54 42.25055 -0.35384 13976 ft 151 kts 290°
2026-05-05 10:55 42.25522 -0.36658 13977 ft 152 kts 290°
2026-05-05 10:55 42.25992 -0.37936 13972 ft 151 kts 289°
2026-05-05 10:55 42.26457 -0.39207 13972 ft 151 kts 289°
2026-05-05 10:55 42.26921 -0.40472 13974 ft 150 kts 289°
2026-05-05 10:56 42.27385 -0.41738 13974 ft 151 kts 289°
2026-05-05 10:56 42.27849 -0.43008 13977 ft 151 kts 289°
2026-05-05 10:56 42.28314 -0.44280 13974 ft 151 kts 289°
2026-05-05 10:56 42.28780 -0.45550 13979 ft 152 kts 289°
2026-05-05 10:57 42.29248 -0.46830 13973 ft 152 kts 290°
2026-05-05 10:57 42.29714 -0.48105 13974 ft 151 kts 289°
2026-05-05 10:57 42.30178 -0.49378 13973 ft 151 kts 289°
2026-05-05 10:57 42.30637 -0.50636 13979 ft 151 kts 289°
2026-05-05 10:58 42.31102 -0.51911 13975 ft 152 kts 289°
2026-05-05 10:58 42.31569 -0.53191 13980 ft 152 kts 290°
2026-05-05 10:58 42.32037 -0.54474 13984 ft 153 kts 289°
2026-05-05 10:58 42.32509 -0.55769 13978 ft 154 kts 289°
2026-05-05 10:59 42.32982 -0.57066 13976 ft 153 kts 289°
2026-05-05 10:59 42.33454 -0.58360 13985 ft 154 kts 289°
2026-05-05 10:59 42.33927 -0.59659 13980 ft 154 kts 289°
2026-05-05 10:59 42.34400 -0.60958 13978 ft 154 kts 289°
2026-05-05 11:00 42.34866 -0.62237 13982 ft 150 kts 289°
2026-05-05 11:00 42.35324 -0.63497 13977 ft 148 kts 289°
2026-05-05 11:00 42.35778 -0.64745 13979 ft 147 kts 289°
2026-05-05 11:00 42.36228 -0.65985 13983 ft 148 kts 289°
2026-05-05 11:01 42.36683 -0.67243 13985 ft 150 kts 289°
2026-05-05 11:01 42.37146 -0.68519 13985 ft 152 kts 290°
2026-05-05 11:01 42.37618 -0.69815 13979 ft 154 kts 289°
2026-05-05 11:01 42.38090 -0.71115 13980 ft 154 kts 289°
2026-05-05 11:02 42.38558 -0.72409 13985 ft 153 kts 289°
2026-05-05 11:02 42.39025 -0.73698 13979 ft 152 kts 289°
2026-05-05 11:02 42.39485 -0.74968 13980 ft 152 kts 289°
2026-05-05 11:02 42.39950 -0.76253 13980 ft 152 kts 289°
2026-05-05 11:03 42.40418 -0.77547 13977 ft 150 kts 289°
2026-05-05 11:03 42.40870 -0.78795 13986 ft 149 kts 289°
2026-05-05 11:03 42.41326 -0.80054 13985 ft 149 kts 289°
2026-05-05 11:03 42.41779 -0.81309 13986 ft 148 kts 289°
2026-05-05 11:04 42.42234 -0.82567 13987 ft 149 kts 289°
2026-05-05 11:04 42.42690 -0.83831 13991 ft 149 kts 290°
2026-05-05 11:04 42.43147 -0.85097 13986 ft 150 kts 289°
2026-05-05 11:04 42.43600 -0.86359 13990 ft 149 kts 289°
2026-05-05 11:05 42.44056 -0.87625 13990 ft 150 kts 289°
2026-05-05 11:05 42.44513 -0.88891 13991 ft 149 kts 289°
2026-05-05 11:05 42.44963 -0.90146 13994 ft 148 kts 289°
2026-05-05 11:05 42.45414 -0.91398 13994 ft 148 kts 289°
2026-05-05 11:06 42.45865 -0.92654 13993 ft 149 kts 289°
2026-05-05 11:06 42.46318 -0.93920 13993 ft 150 kts 289°
2026-05-05 11:06 42.46774 -0.95187 13996 ft 150 kts 289°
2026-05-05 11:06 42.47230 -0.96458 13997 ft 150 kts 289°
2026-05-05 11:07 42.47687 -0.97732 13989 ft 149 kts 290°
2026-05-05 11:07 42.48138 -0.98989 13994 ft 149 kts 290°
2026-05-05 11:07 42.48588 -1.00245 13994 ft 147 kts 289°
2026-05-05 11:07 42.49036 -1.01500 13989 ft 149 kts 289°
2026-05-05 11:08 42.49492 -1.02772 13990 ft 150 kts 289°
2026-05-05 11:08 42.49949 -1.04044 13996 ft 150 kts 290°
2026-05-05 11:08 42.50406 -1.05320 13998 ft 151 kts 290°
2026-05-05 11:08 42.50860 -1.06588 14000 ft 152 kts 289°
2026-05-05 11:09 42.51323 -1.07879 13996 ft 152 kts 290°
2026-05-05 11:09 42.51786 -1.09174 13998 ft 153 kts 290°
2026-05-05 11:09 42.52251 -1.10473 13995 ft 153 kts 290°
2026-05-05 11:09 42.52714 -1.11767 13996 ft 152 kts 290°
2026-05-05 11:10 42.53176 -1.13060 13999 ft 152 kts 290°
2026-05-05 11:10 42.53637 -1.14352 14001 ft 152 kts 290°
2026-05-05 11:10 42.54097 -1.15641 14002 ft 152 kts 290°
2026-05-05 11:10 42.54557 -1.16929 14000 ft 151 kts 290°
2026-05-05 11:11 42.55016 -1.18216 14001 ft 151 kts 290°
2026-05-05 11:11 42.55473 -1.19497 14000 ft 151 kts 290°
2026-05-05 11:11 42.55929 -1.20778 14000 ft 151 kts 290°
2026-05-05 11:11 42.56384 -1.22055 14001 ft 150 kts 290°
2026-05-05 11:12 42.56838 -1.23331 14007 ft 150 kts 290°
2026-05-05 11:12 42.57294 -1.24614 14001 ft 151 kts 290°
2026-05-05 11:12 42.57596 -1.25463 14001 ft 151 kts 290°
2026-05-05 11:12 42.58053 -1.26747 14003 ft 151 kts 290°
2026-05-05 11:13 42.58508 -1.28026 14000 ft 150 kts 290°
2026-05-05 11:13 42.58962 -1.29304 14000 ft 150 kts 290°
2026-05-05 11:13 42.59416 -1.30582 14001 ft 151 kts 290°
2026-05-05 11:13 42.60016 -1.32273 13998 ft 150 kts 290°
2026-05-05 11:14 42.60321 -1.33132 14003 ft 149 kts 290°
2026-05-05 11:14 42.60772 -1.34404 14004 ft 149 kts 290°
2026-05-05 11:14 42.61222 -1.35674 14006 ft 149 kts 290°
2026-05-05 11:14 42.61673 -1.36949 14004 ft 150 kts 290°
2026-05-05 11:15 42.62128 -1.38232 14006 ft 151 kts 290°
2026-05-05 11:15 42.62582 -1.39516 14000 ft 150 kts 290°
2026-05-05 11:15 42.63034 -1.40791 14001 ft 149 kts 290°
2026-05-05 11:15 42.63483 -1.42062 14004 ft 150 kts 290°
2026-05-05 11:16 42.63933 -1.43337 14001 ft 150 kts 290°
2026-05-05 11:16 42.64385 -1.44615 14001 ft 150 kts 290°
2026-05-05 11:16 42.64836 -1.45892 14004 ft 150 kts 290°
2026-05-05 11:16 42.65282 -1.47155 14001 ft 150 kts 290°
2026-05-05 11:17 42.65729 -1.48423 14003 ft 149 kts 290°
2026-05-05 11:17 42.66175 -1.49690 14000 ft 148 kts 290°
2026-05-05 11:17 42.66619 -1.50949 14003 ft 147 kts 290°
2026-05-05 11:17 42.67061 -1.52204 14003 ft 147 kts 290°
2026-05-05 11:18 42.67503 -1.53459 14001 ft 147 kts 290°
2026-05-05 11:18 42.67941 -1.54702 14004 ft 146 kts 290°
2026-05-05 11:18 42.68377 -1.55945 14003 ft 146 kts 290°
2026-05-05 11:18 42.68816 -1.57195 14004 ft 147 kts 290°
2026-05-05 11:19 42.69257 -1.58449 14009 ft 148 kts 290°
2026-05-05 11:19 42.69698 -1.59706 14003 ft 146 kts 290°
2026-05-05 11:19 42.70133 -1.60944 14004 ft 145 kts 290°
2026-05-05 11:19 42.70570 -1.62189 14008 ft 146 kts 291°
2026-05-05 11:20 42.71008 -1.63439 14009 ft 147 kts 291°
2026-05-05 11:20 42.71448 -1.64694 14008 ft 147 kts 291°
2026-05-05 11:20 42.71889 -1.65951 14010 ft 147 kts 290°
2026-05-05 11:20 42.72330 -1.67210 14006 ft 147 kts 291°
2026-05-05 11:21 42.72769 -1.68462 14005 ft 146 kts 291°
2026-05-05 11:21 42.73215 -1.69702 14003 ft 146 kts 295°
2026-05-05 11:21 42.73890 -1.70748 14008 ft 150 kts 315°
2026-05-05 11:21 42.74709 -1.71636 14012 ft 151 kts 316°
2026-05-05 11:22 42.75540 -1.72521 14013 ft 152 kts 316°
2026-05-05 11:22 42.76377 -1.73413 14013 ft 153 kts 317°
2026-05-05 11:22 42.77219 -1.74314 14014 ft 154 kts 317°
2026-05-05 11:22 42.78059 -1.75213 14013 ft 154 kts 316°
2026-05-05 11:23 42.78902 -1.76116 14014 ft 154 kts 316°
2026-05-05 11:23 42.79735 -1.77008 14013 ft 154 kts 317°
2026-05-05 11:23 42.80580 -1.77915 14015 ft 154 kts 317°
2026-05-05 11:23 42.81424 -1.78820 14015 ft 154 kts 317°
2026-05-05 11:24 42.82265 -1.79723 14015 ft 154 kts 317°
2026-05-05 11:24 42.83109 -1.80628 14015 ft 154 kts 317°
2026-05-05 11:24 42.83954 -1.81535 14017 ft 154 kts 317°
2026-05-05 11:24 42.84795 -1.82439 14015 ft 154 kts 317°
2026-05-05 11:25 42.85637 -1.83345 14018 ft 154 kts 317°
2026-05-05 11:25 42.86480 -1.84251 14016 ft 155 kts 317°
2026-05-05 11:25 42.87331 -1.85166 14014 ft 156 kts 317°
2026-05-05 11:25 42.88184 -1.86084 14017 ft 157 kts 317°
2026-05-05 11:26 42.89042 -1.87006 14015 ft 156 kts 317°
2026-05-05 11:26 42.89882 -1.87911 14015 ft 156 kts 317°
2026-05-05 11:26 42.90731 -1.88825 14019 ft 155 kts 317°
2026-05-05 11:26 42.91578 -1.89737 14019 ft 155 kts 317°
2026-05-05 11:27 42.92424 -1.90648 14022 ft 155 kts 317°
2026-05-05 11:27 42.93271 -1.91560 14023 ft 155 kts 317°
2026-05-05 11:27 42.94120 -1.92474 14022 ft 156 kts 317°
2026-05-05 11:27 42.94970 -1.93390 14024 ft 156 kts 317°
2026-05-05 11:28 42.95821 -1.94307 14023 ft 156 kts 317°
2026-05-05 11:28 42.96672 -1.95224 13971 ft 158 kts 317°
2026-05-05 11:28 42.97560 -1.96184 13740 ft 169 kts 317°
2026-05-05 11:28 42.98502 -1.97198 13477 ft 176 kts 318°
2026-05-05 11:29 42.99466 -1.98235 13242 ft 175 kts 318°
2026-05-05 11:29 43.00412 -1.99255 13020 ft 171 kts 318°
2026-05-05 11:29 43.01342 -2.00262 12802 ft 170 kts 318°
2026-05-05 11:29 43.02263 -2.01259 12582 ft 168 kts 318°
2026-05-05 11:30 43.03179 -2.02251 12358 ft 168 kts 318°
2026-05-05 11:30 43.04090 -2.03235 12141 ft 166 kts 317°
2026-05-05 11:30 43.04994 -2.04215 11922 ft 165 kts 318°
2026-05-05 11:30 43.05892 -2.05187 11707 ft 164 kts 318°
2026-05-05 11:31 43.06787 -2.06157 11491 ft 164 kts 318°
2026-05-05 11:31 43.07684 -2.07127 11270 ft 164 kts 318°
2026-05-05 11:31 43.08659 -2.07959 11052 ft 167 kts 335°
2026-05-05 11:31 43.09793 -2.08235 10839 ft 171 kts 358°
2026-05-05 11:32 43.10960 -2.07859 10607 ft 175 kts 22°
2026-05-05 11:32 43.11949 -2.06883 10379 ft 177 kts 39°
2026-05-05 11:32 43.12865 -2.05753 10138 ft 178 kts 40°
2026-05-05 11:32 43.13778 -2.04612 9898 ft 178 kts 40°
2026-05-05 11:33 43.14690 -2.03477 9657 ft 176 kts 40°
2026-05-05 11:33 43.15589 -2.02362 9431 ft 173 kts 39°
2026-05-05 11:33 43.16479 -2.01259 9202 ft 173 kts 40°
2026-05-05 11:33 43.17367 -2.00157 8979 ft 172 kts 39°
2026-05-05 11:34 43.18253 -1.99059 8750 ft 171 kts 39°
2026-05-05 11:34 43.19139 -1.97958 8511 ft 172 kts 40°
2026-05-05 11:34 43.20020 -1.96864 8292 ft 171 kts 39°
2026-05-05 11:34 43.20901 -1.95769 8061 ft 170 kts 39°
2026-05-05 11:35 43.21768 -1.94690 7847 ft 167 kts 38°
2026-05-05 11:35 43.22627 -1.93623 7625 ft 166 kts 39°
2026-05-05 11:35 43.23483 -1.92560 7400 ft 167 kts 39°
2026-05-05 11:35 43.24346 -1.91487 7178 ft 167 kts 39°
2026-05-05 11:36 43.25207 -1.90414 6959 ft 167 kts 39°
2026-05-05 11:36 43.26062 -1.89348 6739 ft 165 kts 39°
2026-05-05 11:36 43.26913 -1.88289 6522 ft 165 kts 38°
2026-05-05 11:36 43.27757 -1.87234 6301 ft 164 kts 38°
2026-05-05 11:37 43.28611 -1.86171 6080 ft 167 kts 38°
2026-05-05 11:37 43.29468 -1.85112 6024 ft 162 kts 35°
2026-05-05 11:37 43.30408 -1.84411 6016 ft 152 kts 12°
2026-05-05 11:37 43.31416 -1.84261 6008 ft 142 kts 351°
2026-05-05 11:38 43.32327 -1.84592 6014 ft 131 kts 330°
2026-05-05 11:38 43.33057 -1.85269 6015 ft 125 kts 317°
2026-05-05 11:38 43.33712 -1.86020 6014 ft 120 kts 316°
2026-05-05 11:38 43.34339 -1.86741 6021 ft 116 kts 316°
2026-05-05 11:39 43.34964 -1.87462 6022 ft 119 kts 316°
2026-05-05 11:39 43.35616 -1.88215 6028 ft 125 kts 317°
2026-05-05 11:39 43.36292 -1.88991 6026 ft 128 kts 317°
2026-05-05 11:39 43.36978 -1.89780 6027 ft 129 kts 317°
2026-05-05 11:40 43.37672 -1.90578 6026 ft 131 kts 317°
2026-05-05 11:40 43.38369 -1.91382 6026 ft 131 kts 317°
2026-05-05 11:40 43.39071 -1.92192 6027 ft 132 kts 317°
2026-05-05 11:40 43.39777 -1.93006 5958 ft 136 kts 317°
2026-05-05 11:41 43.40541 -1.93888 5694 ft 149 kts 317°
2026-05-05 11:41 43.41295 -1.94756 5455 ft 154 kts 317°
2026-05-05 11:41 43.42125 -1.95713 5197 ft 157 kts 317°
2026-05-05 11:41 43.43004 -1.96564 4944 ft 158 kts 331°
2026-05-05 11:42 43.44064 -1.96946 4694 ft 160 kts 351°
2026-05-05 11:42 43.45173 -1.96778 4432 ft 163 kts 12°
2026-05-05 11:42 43.46185 -1.96043 4179 ft 168 kts 34°
2026-05-05 11:42 43.46941 -1.94805 3923 ft 172 kts 57°
2026-05-05 11:43 43.47519 -1.93372 3669 ft 171 kts 58°
2026-05-05 11:43 43.48090 -1.91935 3416 ft 171 kts 58°
2026-05-05 11:43 43.48650 -1.90528 3294 ft 163 kts 58°
2026-05-05 11:43 43.49187 -1.89187 3219 ft 157 kts 57°
2026-05-05 11:44 43.49708 -1.87886 3195 ft 154 kts 57°
2026-05-05 11:44 43.50226 -1.86590 3168 ft 154 kts 58°
2026-05-05 11:44 43.50740 -1.85301 3139 ft 153 kts 57°
2026-05-05 11:44 43.51252 -1.84016 3130 ft 153 kts 58°
2026-05-05 11:45 43.51765 -1.82730 3114 ft 153 kts 58°
2026-05-05 11:45 43.52282 -1.81431 3046 ft 156 kts 57°
2026-05-05 11:45 43.52810 -1.80107 2947 ft 158 kts 58°
2026-05-05 11:45 43.53341 -1.78771 2847 ft 159 kts 58°
2026-05-05 11:46 43.53875 -1.77429 2740 ft 161 kts 58°
2026-05-05 11:46 43.54404 -1.76066 2629 ft 162 kts 63°
2026-05-05 11:46 43.54612 -1.74545 2523 ft 163 kts 92°
2026-05-05 11:46 43.54322 -1.73083 2529 ft 156 kts 120°
2026-05-05 11:47 43.53693 -1.71895 2530 ft 153 kts 132°
2026-05-05 11:47 43.53025 -1.70759 2522 ft 152 kts 133°
2026-05-05 11:47 43.52358 -1.69634 2522 ft 151 kts 132°
2026-05-05 11:47 43.51697 -1.68514 2527 ft 151 kts 132°
2026-05-05 11:48 43.50360 -1.66267 2525 ft 152 kts 137°
2026-05-05 11:48 43.49487 -1.65509 2535 ft 147 kts 167°
2026-05-05 11:48 43.48512 -1.65389 2525 ft 142 kts 194°
2026-05-05 11:49 43.47628 -1.65853 2528 ft 136 kts 219°
2026-05-05 11:49 43.46888 -1.66650 2467 ft 134 kts 224°
2026-05-05 11:49 43.46170 -1.67445 2393 ft 131 kts 224°
2026-05-05 11:49 43.45459 -1.68234 2313 ft 131 kts 224°
2026-05-05 11:50 43.44748 -1.69022 2221 ft 130 kts 224°
2026-05-05 11:50 43.44039 -1.69805 2131 ft 131 kts 224°
2026-05-05 11:50 43.43353 -1.70563 2056 ft 118 kts 225°
2026-05-05 11:50 43.42756 -1.71219 1881 ft 101 kts 224°
2026-05-05 11:51 43.42236 -1.71791 1748 ft 93 kts 224°
2026-05-05 11:51 43.41723 -1.72357 1610 ft 95 kts 224°
2026-05-05 11:51 43.41205 -1.72931 1464 ft 96 kts 224°
2026-05-05 11:51 43.40686 -1.73505 1320 ft 96 kts 224°
2026-05-05 11:52 43.40162 -1.74084 1170 ft 96 kts 223°
2026-05-05 11:52 43.39633 -1.74669 1013 ft 98 kts 224°
2026-05-05 11:52 43.39103 -1.75252 858 ft 97 kts 223°
2026-05-05 11:52 43.38570 -1.75842 704 ft 100 kts 222°
2026-05-05 11:53 43.38026 -1.76442 575 ft 100 kts 219°
2026-05-05 11:53 43.37480 -1.77027 416 ft 98 kts 223°
2026-05-05 11:53 43.36957 -1.77611 267 ft 97 kts 219°
2026-05-05 11:53 43.36435 -1.78193 125 ft 95 kts 221°
2026-05-05 11:54 43.35937 -1.78743 21 ft 81 kts 220°
2026-05-05 11:54 43.35601 -1.79115 13 ft 28 kts 218°
2026-05-05 11:54 43.35514 -1.79233 13 ft 10 kts 285°
2026-05-05 11:54 43.35544 -1.79287 12 ft 8 kts 309°
2026-05-05 11:55 43.35562 -1.79333 11 ft 5 kts 204°
2026-05-05 11:55 43.35529 -1.79376 11 ft 3 kts 227°
2026-05-05 11:55 43.35522 -1.79384 11 ft 0 kts 219°
2026-05-05 11:55 43.35514 -1.79388 11 ft 5 kts 351°
2026-05-05 11:56 43.35510 -1.79390 11 ft 1 kts 128°